Aviation Digital Data Service (ADDS)

Output produced by METARs form (1739 UTC 27 May 2017)
found at http://www.aviationweather.gov/adds/metars/
 
ORBD 271655Z 27009KT 9999 CLR 30/03 A2978 RMK SLP085 WND DATA/ALSTG/SLP ESTMD
TAF ORBD 2711/2817 32014G22KT 8000 HZ SKC QNH2970INS WND 240V350 
     TEMPO 2711/2715 4000 BLDU 
     BECMG 2714/1715 34009KT 6000 DUHZ SKC QNH2972INS 
     BECMG 2804/2805 01012G18KT 9999 NSW SKC QNH2978INS WND 330V060 TX40/2812Z TN23/2802Z
       
ORBI 271730Z 31007KT CAVOK 29/04 Q1009
TAF ORBI 271700Z 2718/2818 32008KT 8000 NSC
       
ORER 271700Z 23009KT CAVOK 26/M01 Q 1011 NOSIG
TAF ORER 271700Z 2718/2818 28006KT 7000 NSC
       
ORMM 271700Z 29010KT CAVOK 36/09 Q1006 NOSIG
TAF ORMM 271600Z 2718/2818 32010G20KT 6000 NSC
       
ORNI 271700Z 34007KT 7000 NSC 34/M00 Q1008 NOSIG
TAF ORNI 271700Z 2718/2818 33010KT 6000 NSC
       
ORSU 271700Z 32006KT CAVOK 22/03 Q1013
TAF ORSU 271100Z 2712/2812 24015KT 7000 BLDU NSC 
     BECMG 2716/2718 30008KT 8000 NSC 
     TEMPO 2808/2812 31012KT CAVOK
       
ORBD 271655Z 27009KT 9999 CLR 30/03 A2978 RMK SLP085 WND DATA/ALSTG/SLP ESTMD
TAF ORBD 2711/2817 32014G22KT 8000 HZ SKC QNH2970INS WND 240V350 
     TEMPO 2711/2715 4000 BLDU 
     BECMG 2714/1715 34009KT 6000 DUHZ SKC QNH2972INS 
     BECMG 2804/2805 01012G18KT 9999 NSW SKC QNH2978INS WND 330V060 TX40/2812Z TN23/2802Z
       
ORBI 271730Z 31007KT CAVOK 29/04 Q1009
TAF ORBI 271700Z 2718/2818 32008KT 8000 NSC
       
ORER 271700Z 23009KT CAVOK 26/M01 Q 1011 NOSIG
TAF ORER 271700Z 2718/2818 28006KT 7000 NSC
       
ORMM 271700Z 29010KT CAVOK 36/09 Q1006 NOSIG
TAF ORMM 271600Z 2718/2818 32010G20KT 6000 NSC
       
ORNI 271700Z 34007KT 7000 NSC 34/M00 Q1008 NOSIG
TAF ORNI 271700Z 2718/2818 33010KT 6000 NSC
       
ORSU 271700Z 32006KT CAVOK 22/03 Q1013
TAF ORSU 271100Z 2712/2812 24015KT 7000 BLDU NSC 
     BECMG 2716/2718 30008KT 8000 NSC 
     TEMPO 2808/2812 31012KT CAVOK
       
ORBD 271655Z 27009KT 9999 CLR 30/03 A2978 RMK SLP085 WND DATA/ALSTG/SLP ESTMD
TAF ORBD 2711/2817 32014G22KT 8000 HZ SKC QNH2970INS WND 240V350 
     TEMPO 2711/2715 4000 BLDU 
     BECMG 2714/1715 34009KT 6000 DUHZ SKC QNH2972INS 
     BECMG 2804/2805 01012G18KT 9999 NSW SKC QNH2978INS WND 330V060 TX40/2812Z TN23/2802Z
       
ORBI 271730Z 31007KT CAVOK 29/04 Q1009
TAF ORBI 271700Z 2718/2818 32008KT 8000 NSC
       
ORER 271700Z 23009KT CAVOK 26/M01 Q 1011 NOSIG
TAF ORER 271700Z 2718/2818 28006KT 7000 NSC
       
ORMM 271700Z 29010KT CAVOK 36/09 Q1006 NOSIG
TAF ORMM 271600Z 2718/2818 32010G20KT 6000 NSC
       
ORNI 271700Z 34007KT 7000 NSC 34/M00 Q1008 NOSIG
TAF ORNI 271700Z 2718/2818 33010KT 6000 NSC
       
ORSU 271700Z 32006KT CAVOK 22/03 Q1013
TAF ORSU 271100Z 2712/2812 24015KT 7000 BLDU NSC 
     BECMG 2716/2718 30008KT 8000 NSC 
     TEMPO 2808/2812 31012KT CAVOK
       
ORBD 271655Z 27009KT 9999 CLR 30/03 A2978 RMK SLP085 WND DATA/ALSTG/SLP ESTMD
TAF ORBD 2711/2817 32014G22KT 8000 HZ SKC QNH2970INS WND 240V350 
     TEMPO 2711/2715 4000 BLDU 
     BECMG 2714/1715 34009KT 6000 DUHZ SKC QNH2972INS 
     BECMG 2804/2805 01012G18KT 9999 NSW SKC QNH2978INS WND 330V060 TX40/2812Z TN23/2802Z
       
ORBI 271730Z 31007KT CAVOK 29/04 Q1009
TAF ORBI 271700Z 2718/2818 32008KT 8000 NSC
       
ORER 271700Z 23009KT CAVOK 26/M01 Q 1011 NOSIG
TAF ORER 271700Z 2718/2818 28006KT 7000 NSC
       
ORMM 271700Z 29010KT CAVOK 36/09 Q1006 NOSIG
TAF ORMM 271600Z 2718/2818 32010G20KT 6000 NSC
       
ORNI 271700Z 34007KT 7000 NSC 34/M00 Q1008 NOSIG
TAF ORNI 271700Z 2718/2818 33010KT 6000 NSC
       
ORSU 271700Z 32006KT CAVOK 22/03 Q1013
TAF ORSU 271100Z 2712/2812 24015KT 7000 BLDU NSC 
     BECMG 2716/2718 30008KT 8000 NSC 
     TEMPO 2808/2812 31012KT CAVOK
       
ORBD 271655Z 27009KT 9999 CLR 30/03 A2978 RMK SLP085 WND DATA/ALSTG/SLP ESTMD
TAF ORBD 2711/2817 32014G22KT 8000 HZ SKC QNH2970INS WND 240V350 
     TEMPO 2711/2715 4000 BLDU 
     BECMG 2714/1715 34009KT 6000 DUHZ SKC QNH2972INS 
     BECMG 2804/2805 01012G18KT 9999 NSW SKC QNH2978INS WND 330V060 TX40/2812Z TN23/2802Z
       
ORBI 271730Z 31007KT CAVOK 29/04 Q1009
TAF ORBI 271700Z 2718/2818 32008KT 8000 NSC
       
ORER 271700Z 23009KT CAVOK 26/M01 Q 1011 NOSIG
TAF ORER 271700Z 2718/2818 28006KT 7000 NSC
       
ORMM 271700Z 29010KT CAVOK 36/09 Q1006 NOSIG
TAF ORMM 271600Z 2718/2818 32010G20KT 6000 NSC
       
ORNI 271700Z 34007KT 7000 NSC 34/M00 Q1008 NOSIG
TAF ORNI 271700Z 2718/2818 33010KT 6000 NSC
       
ORSU 271700Z 32006KT CAVOK 22/03 Q1013
TAF ORSU 271100Z 2712/2812 24015KT 7000 BLDU NSC 
     BECMG 2716/2718 30008KT 8000 NSC 
     TEMPO 2808/2812 31012KT CAVOK
       
ORMM 271700Z 29010KT CAVOK 36/09 Q1006 NOSIG
TAF ORMM 271600Z 2718/2818 32010G20KT 6000 NSC
       
ORBD 271655Z 27009KT 9999 CLR 30/03 A2978 RMK SLP085 WND DATA/ALSTG/SLP ESTMD
TAF ORBD 2711/2817 32014G22KT 8000 HZ SKC QNH2970INS WND 240V350 
     TEMPO 2711/2715 4000 BLDU 
     BECMG 2714/1715 34009KT 6000 DUHZ SKC QNH2972INS 
     BECMG 2804/2805 01012G18KT 9999 NSW SKC QNH2978INS WND 330V060 TX40/2812Z TN23/2802Z
       
ORBI 271730Z 31007KT CAVOK 29/04 Q1009
TAF ORBI 271700Z 2718/2818 32008KT 8000 NSC
       
ORER 271700Z 23009KT CAVOK 26/M01 Q 1011 NOSIG
TAF ORER 271700Z 2718/2818 28006KT 7000 NSC
       
ORMM 271700Z 29010KT CAVOK 36/09 Q1006 NOSIG
TAF ORMM 271600Z 2718/2818 32010G20KT 6000 NSC
       
ORNI 271700Z 34007KT 7000 NSC 34/M00 Q1008 NOSIG
TAF ORNI 271700Z 2718/2818 33010KT 6000 NSC
       
ORSU 271700Z 32006KT CAVOK 22/03 Q1013
TAF ORSU 271100Z 2712/2812 24015KT 7000 BLDU NSC 
     BECMG 2716/2718 30008KT 8000 NSC 
     TEMPO 2808/2812 31012KT CAVOK
       
ORBD 271655Z 27009KT 9999 CLR 30/03 A2978 RMK SLP085 WND DATA/ALSTG/SLP ESTMD
TAF ORBD 2711/2817 32014G22KT 8000 HZ SKC QNH2970INS WND 240V350 
     TEMPO 2711/2715 4000 BLDU 
     BECMG 2714/1715 34009KT 6000 DUHZ SKC QNH2972INS 
     BECMG 2804/2805 01012G18KT 9999 NSW SKC QNH2978INS WND 330V060 TX40/2812Z TN23/2802Z
       
ORBI 271730Z 31007KT CAVOK 29/04 Q1009
TAF ORBI 271700Z 2718/2818 32008KT 8000 NSC
       
ORER 271700Z 23009KT CAVOK 26/M01 Q 1011 NOSIG
TAF ORER 271700Z 2718/2818 28006KT 7000 NSC
       
ORMM 271700Z 29010KT CAVOK 36/09 Q1006 NOSIG
TAF ORMM 271600Z 2718/2818 32010G20KT 6000 NSC
       
ORNI 271700Z 34007KT 7000 NSC 34/M00 Q1008 NOSIG
TAF ORNI 271700Z 2718/2818 33010KT 6000 NSC
       
ORSU 271700Z 32006KT CAVOK 22/03 Q1013
TAF ORSU 271100Z 2712/2812 24015KT 7000 BLDU NSC 
     BECMG 2716/2718 30008KT 8000 NSC 
     TEMPO 2808/2812 31012KT CAVOK
       
ORBD 271655Z 27009KT 9999 CLR 30/03 A2978 RMK SLP085 WND DATA/ALSTG/SLP ESTMD
TAF ORBD 2711/2817 32014G22KT 8000 HZ SKC QNH2970INS WND 240V350 
     TEMPO 2711/2715 4000 BLDU 
     BECMG 2714/1715 34009KT 6000 DUHZ SKC QNH2972INS 
     BECMG 2804/2805 01012G18KT 9999 NSW SKC QNH2978INS WND 330V060 TX40/2812Z TN23/2802Z
       
ORBI 271730Z 31007KT CAVOK 29/04 Q1009
TAF ORBI 271700Z 2718/2818 32008KT 8000 NSC
       
ORER 271700Z 23009KT CAVOK 26/M01 Q 1011 NOSIG
TAF ORER 271700Z 2718/2818 28006KT 7000 NSC
       
ORMM 271700Z 29010KT CAVOK 36/09 Q1006 NOSIG
TAF ORMM 271600Z 2718/2818 32010G20KT 6000 NSC
       
ORNI 271700Z 34007KT 7000 NSC 34/M00 Q1008 NOSIG
TAF ORNI 271700Z 2718/2818 33010KT 6000 NSC
       
ORSU 271700Z 32006KT CAVOK 22/03 Q1013
TAF ORSU 271100Z 2712/2812 24015KT 7000 BLDU NSC 
     BECMG 2716/2718 30008KT 8000 NSC 
     TEMPO 2808/2812 31012KT CAVOK
       
ORBD 271655Z 27009KT 9999 CLR 30/03 A2978 RMK SLP085 WND DATA/ALSTG/SLP ESTMD
TAF ORBD 2711/2817 32014G22KT 8000 HZ SKC QNH2970INS WND 240V350 
     TEMPO 2711/2715 4000 BLDU 
     BECMG 2714/1715 34009KT 6000 DUHZ SKC QNH2972INS 
     BECMG 2804/2805 01012G18KT 9999 NSW SKC QNH2978INS WND 330V060 TX40/2812Z TN23/2802Z
       
ORBI 271730Z 31007KT CAVOK 29/04 Q1009
TAF ORBI 271700Z 2718/2818 32008KT 8000 NSC
       
ORER 271700Z 23009KT CAVOK 26/M01 Q 1011 NOSIG
TAF ORER 271700Z 2718/2818 28006KT 7000 NSC
       
ORMM 271700Z 29010KT CAVOK 36/09 Q1006 NOSIG
TAF ORMM 271600Z 2718/2818 32010G20KT 6000 NSC
       
ORNI 271700Z 34007KT 7000 NSC 34/M00 Q1008 NOSIG
TAF ORNI 271700Z 2718/2818 33010KT 6000 NSC
       
ORSU 271700Z 32006KT CAVOK 22/03 Q1013
TAF ORSU 271100Z 2712/2812 24015KT 7000 BLDU NSC 
     BECMG 2716/2718 30008KT 8000 NSC 
     TEMPO 2808/2812 31012KT CAVOK